DELTA 1 DEB, 21452

Orbit data source: Space-Track

DELTA 1 DEB, 21452 is space debris in SSO originally from a launch on Thu, 12 Jun 1975 UTC launched from the Air Force Western Test Range (AFWTR). Debris objects in space refer to the collection of defunct objects orbiting the Earth. Examples of debris include non-operational satellites, rocket bodies, and fragments generated from explosions, collisions, or faulty payload assembly.

Loading next visibility...
Identifier
21452, 1975-052EL
Orbit
SSO
Country
Flag of USUS
Related business
Manufacturer
Unknown
Mission
Spacecraft
Bus & Motor
Unknown
Mass
Unknown
Launch date (UTC)
1975-06-12 (50 years ago)
Launch vehicle
Unknown
Launch site
Air Force Western Test Range (AFWTR)
Object type
Payload
Rocket body
Debris
Shape & HBR
Unknown shape, 0.1 m
Radar Cross Section
Small (<0.1 m²)

Expand to show TLE details & history
Last TLE update: 1 day ago

TLE from 1 day ago
0 DELTA 1 DEB
1 21452U 75052EL  25305.76463454  .00002775  00000-0  11548-1 0  9998
2 21452  99.7258 229.6500 0593459  16.6851  11.2444 12.39151599546648
Epoch: 2025-11-01T18:21Z
TLE epoch observation values (Epoch: 2025-11-01T18:21:04.424Z)
Latitude
28.94486°
Longitude
-92.31932°
Altitude
1,055.489 km
Speed
7.536 km/s
True Right ascension
14h 56m 57s
True Declination
28° 48' 19"
Sunlit
Object was in daylight at epoch
Visualization orbit readout
Latitude
Unknown
Longitude
Unknown
Altitude
Unknown
Speed
Unknown
Apparent Right ascension
Unknown
Apparent Declination
Unknown
Sunlit
N/A
Visualization observer readout
Local Sidereal Time
19:24:30
Azimuth
Unknown
Elevation
Unknown
Doppler factor
Unknown
Orbital elements
Apogee altitude
1,975.63 km
Perigee altitude
1,039.652 km
Semi-major axis
7,885.778 km
Eccentricity
0.05935
Inclination
99.7258°
RAAN
229.65°
Arg. of periapsis
16.6851°
True anomaly
12.67401°
Mean anomaly
11.2444°
Eccentric anomaly
11.94836°
Mean motion
3.09939 °/min
Orbital period
116.15 mins
BSTAR
0.011548
Loading maneuver chart data...
Computing Atmospheric mass density...
Loading historical data...
Loading historical data...
Loading historical data...
Loading historical data...
Loading historical data...
Loading historical data...
Loading historical data...

Documentation

Showing up to 5 results
|